Flag for China Weather past 2 weeks in Changsha, China

Now
61 °F

Mostly cloudy.


Feels Like: 61 °F
Forecast: 55 / 66 °F
Wind: 10 mph from North

Location: Changsha


UV Index: 5 (Moderate)

Visibility: 4 mi


Pressure: 30.07 "Hg

Humidity: 88%

Dew point: 57 °F

Location of ChangshaLocation

Historic Weather in Changsha

°F

Changsha temperature yesterday

Maximum temperature yesterday: 63 °F (at 12:00 PM)
Minimum temperature yesterday: 57 °F (at 4:00 AM)
Average temperature yesterday: 61 °F

Past Weeks' High & Low Weather Summary

 TemperatureHumidityPressure
High90 °F (Apr 18, 3:00 PM)100% (Apr 7, 10:00 PM)30.12 "Hg (Apr 7, 10:00 PM)
Low55 °F (Apr 8, 5:00 AM)32% (Apr 9, 2:00 PM)29.68 "Hg (Apr 16, 4:00 PM)
Average67 °F76%29.91 "Hg
* Reported Apr 6 10:00 PM — Apr 21 10:00 PM, Changsha, Weather by CustomWeather, © 2014

Note: Actual official high and low records may vary slightly from our data, if they occured in-between our weather recording intervals... More about our weather records

Advertising

Historic Weather Conditions — Data for Previous 24 hours

 ConditionsComfort  
Time TempWeatherWind HumidityBarometerVisibility
10:00 PM
Apr 21
61 °FMostly cloudy.10 mph88%30.04 "Hg4 mi
9:00 PM61 °FLight rain. Mostly cloudy.8 mph88%30.04 "Hg4 mi
8:00 PM61 °FLight rain. Fog.10 mph88%30.01 "Hg3 mi
7:00 PM61 °FLight rain. Fog.10 mph88%29.95 "Hg3 mi
6:00 PM61 °FLight rain. Cloudy.8 mph94%29.95 "Hg4 mi
5:00 PM63 °FLight rain. Fog.6 mph88%29.92 "Hg2 mi
4:00 PM61 °FLight rain. Fog.6 mph94%29.92 "Hg2 mi
3:00 PM63 °FLight rain. Fog.6 mph88%29.92 "Hg3 mi
2:00 PM63 °FLight rain. Fog.3 mph88%29.92 "Hg3 mi
1:00 PM61 °FLight rain. Fog.6 mph94%29.92 "Hg2 mi
12:00 PM61 °FLight rain. Fog.6 mph94%29.92 "Hg2 mi
11:00 AM61 °FLight rain. Fog.6 mph88%29.95 "Hg2 mi
10:00 AM61 °FLight rain. Fog.8 mph88%29.92 "Hg2 mi
9:00 AM61 °FLight rain. Fog.8 mph88%29.92 "Hg1 mi
8:00 AM61 °FLight rain. Fog.3 mph88%29.89 "Hg1 mi
7:00 AM61 °FFog.1 mph88%29.86 "Hg1 mi
6:00 AM61 °FFog.1 mph88%29.86 "Hg1 mi
5:00 AM61 °FFog.3 mph88%29.86 "Hg1 mi
4:00 AM61 °FDrizzle. Fog.1 mph88%29.89 "Hg1 mi
3:00 AM61 °FLight rain. Fog.6 mph88%29.92 "Hg1 mi
2:00 AM59 °FLight rain. Fog.6 mph94%29.92 "Hg2 mi
1:00 AM59 °FLight rain. Fog.3 mph94%29.95 "Hg2 mi
12:00 AM61 °FLight rain. Fog.3 mph83%29.95 "Hg2 mi
11:00 PM
Apr 20
61 °FLight rain. Fog.6 mph83%29.95 "Hg2 mi
Weather by CustomWeather, © 2014

See weather overview